15-08-2023, 00:00:06,    236,    0.0,   11.4,   0.00,   0.00, 1009.6,    0.2, -999.0
15-08-2023, 00:00:16,    234,    0.0,   11.4,   0.00,   0.00, 1009.6,    0.2, -999.0
15-08-2023, 00:00:27,    184,    0.7,   11.6,   0.00,   0.00, 1009.8,    0.3, -999.0
15-08-2023, 00:00:36,    203,    0.7,   11.6,   0.00,   0.00, 1009.8,    0.3, -999.0
15-08-2023, 00:00:46,    205,    0.4,   11.5,   0.00,   0.00, 1009.7,    0.3, -999.0
15-08-2023, 00:00:56,    220,    0.7,   11.5,   0.00,   0.00, 1009.7,    0.3, -999.0
15-08-2023, 00:01:07,    221,    0.6,   11.6,   0.00,   0.00, 1009.7,    0.3, -999.0
15-08-2023, 00:01:16,    221,    0.1,   11.5,   0.00,   0.00, 1009.7,    0.6, -999.0
15-08-2023, 00:01:26,    220,    0.0,   11.5,   0.00,   0.00, 1009.6,    0.2, -999.0
15-08-2023, 00:01:36,    219,    0.0,   11.4,   0.00,   0.00, 1009.6,    0.1, -999.0
15-08-2023, 00:01:46,    219,    0.0,   11.4,   0.00,   0.00, 1009.6,    0.3, -999.0
15-08-2023, 00:01:56,    220,    0.1,   11.5,   0.00,   0.00, 1009.6,    0.3, -999.0
15-08-2023, 00:02:06,    220,    1.1,   11.6,   0.00,   0.00, 1009.8,    0.3, -999.0
15-08-2023, 00:02:16,    225,    1.1,   11.6,   0.00,   0.00, 1009.8,    0.5, -999.0
15-08-2023, 00:02:26,    224,    0.7,   11.6,   0.00,   0.00, 1009.7,    0.2, -999.0
15-08-2023, 00:02:36,    225,    0.0,   11.5,   0.00,   0.00, 1009.6,    0.2, -999.0
15-08-2023, 00:02:46,    225,    0.0,   11.5,   0.00,   0.00, 1009.6,    0.2, -999.0
15-08-2023, 00:02:56,    225,    0.0,   11.5,   0.00,   0.00, 1009.6,    0.2, -999.0
15-08-2023, 00:03:06,    224,    0.0,   11.5,   0.00,   0.00, 1009.6,    0.2, -999.0
15-08-2023, 00:03:16,    225,    0.0,   11.5,   0.00,   0.00, 1009.6,    0.3, -999.0
15-08-2023, 00:03:26,    225,    0.0,   11.6,   0.00,   0.00, 1009.6,    0.2, -999.0
15-08-2023, 00:03:36,    225,    0.0,   11.5,   0.00,   0.00, 1009.6,    0.5, -999.0
15-08-2023, 00:03:46,    226,    0.0,   11.5,   0.00,   0.00, 1009.6,    0.3, -999.0
15-08-2023, 00:03:56,    226,    0.5,   11.6,   0.00,   0.00, 1009.7,    0.2, -999.0
15-08-2023, 00:04:06,    226,    0.0,   11.5,   0.00,   0.00, 1009.6,    0.1, -999.0
15-08-2023, 00:04:16,    225,    0.0,   11.5,   0.00,   0.00, 1009.6,    0.2, -999.0
15-08-2023, 00:04:26,    226,    0.0,   11.5,   0.00,   0.00, 1009.6,    0.2, -999.0
15-08-2023, 00:04:36,    226,    0.0,   11.5,   0.00,   0.00, 1009.6,    0.3, -999.0
15-08-2023, 00:04:46,    227,    0.3,   11.5,   0.00,   0.00, 1009.7,    0.1, -999.0
15-08-2023, 00:04:56,    224,    0.1,   11.5,   0.00,   0.00, 1009.7,    0.6, -999.0
15-08-2023, 00:05:06,    225,    0.0,   11.5,   0.00,   0.00, 1009.6,    0.7, -999.0
15-08-2023, 00:05:16,    224,    0.0,   11.4,   0.00,   0.00, 1009.6,    0.6, -999.0
15-08-2023, 00:05:26,    224,    0.0,   11.4,   0.00,   0.00, 1009.7,    0.2, -999.0
15-08-2023, 00:05:36,    224,    0.0,   11.4,   0.00,   0.00, 1009.6,    0.4, -999.0
15-08-2023, 00:05:46,    224,    0.0,   11.4,   0.00,   0.00, 1009.6,    0.2, -999.0
15-08-2023, 00:05:56,    224,    0.0,   11.4,   0.00,   0.00, 1009.6,    0.3, -999.0
15-08-2023, 00:06:06,    224,    0.0,   11.4,   0.00,   0.00, 1009.6,    0.2, -999.0
15-08-2023, 00:06:15,    224,    0.0,   11.4,   0.00,   0.00, 1009.6,    0.1, -999.0
15-08-2023, 00:06:26,    237,    1.1,   11.4,   0.00,   0.00, 1009.7,    0.4, -999.0
15-08-2023, 00:06:36,    262,    1.8,   11.6,   0.00,   0.00, 1009.8,    0.4, -999.0
15-08-2023, 00:06:45,    264,    2.0,   11.5,   0.00,   0.00, 1009.8,    0.3, -999.0
15-08-2023, 00:06:56,    238,    0.9,   11.5,   0.00,   0.00, 1009.7,    0.3, -999.0
15-08-2023, 00:07:06,    237,    0.3,   11.5,   0.00,   0.00, 1009.7,    0.1, -999.0
15-08-2023, 00:07:15,    237,    0.0,   11.4,   0.00,   0.00, 1009.6,    0.2, -999.0
15-08-2023, 00:07:26,    237,    0.1,   11.4,   0.00,   0.00, 1009.7,    0.2, -999.0
15-08-2023, 00:07:36,    237,    0.0,   11.4,   0.00,   0.00, 1009.6,    0.4, -999.0
15-08-2023, 00:07:45,    237,    0.0,   11.4,   0.00,   0.00, 1009.6,    0.1, -999.0
15-08-2023, 00:07:55,    237,    0.0,   11.4,   0.00,   0.00, 1009.6,    0.3, -999.0
15-08-2023, 00:08:05,    261,    1.0,   11.4,   0.00,   0.00, 1009.7,    0.5, -999.0
15-08-2023, 00:08:15,    260,    0.4,   11.5,   0.00,   0.00, 1009.7,    0.3, -999.0
15-08-2023, 00:08:25,    260,    0.0,   11.4,   0.00,   0.00, 1009.6,    0.5, -999.0
15-08-2023, 00:08:35,    260,    0.0,   11.4,   0.00,   0.00, 1009.6,    0.3, -999.0
15-08-2023, 00:08:45,    260,    0.0,   11.4,   0.00,   0.00, 1009.6,    0.4, -999.0
15-08-2023, 00:08:55,    260,    0.2,   11.4,   0.00,   0.00, 1009.7,    0.3, -999.0
15-08-2023, 00:09:05,    270,    0.2,   11.4,   0.00,   0.00, 1009.6,    0.1, -999.0
15-08-2023, 00:09:15,    273,    1.1,   11.5,   0.00,   0.00, 1009.8,    0.1, -999.0
15-08-2023, 00:09:25,    273,    0.4,   11.4,   0.00,   0.00, 1009.7,    0.0, -999.0
15-08-2023, 00:09:35,    272,    0.1,   11.4,   0.00,   0.00, 1009.6,    0.3, -999.0
15-08-2023, 00:09:45,    272,    0.0,   11.4,   0.00,   0.00, 1009.6,    0.2, -999.0
15-08-2023, 00:09:55,    272,    0.0,   11.4,   0.00,   0.00, 1009.6,    0.2, -999.0
15-08-2023, 00:10:05,    271,    0.0,   11.4,   0.00,   0.00, 1009.6,    0.3, -999.0
15-08-2023, 00:10:15,    235,    0.5,   11.4,   0.00,   0.00, 1009.7,    0.4, -999.0
15-08-2023, 00:10:25,    229,    0.8,   11.5,   0.00,   0.00, 1009.7,    0.2, -999.0
15-08-2023, 00:10:35,    229,    0.0,   11.4,   0.00,   0.00, 1009.6,    0.4, -999.0
15-08-2023, 00:10:45,    231,    0.1,   11.4,   0.00,   0.00, 1009.6,    0.3, -999.0
15-08-2023, 00:10:55,    230,    0.0,   11.3,   0.00,   0.00, 1009.6,    0.3, -999.0
15-08-2023, 00:11:05,    229,    1.5,   11.5,   0.00,   0.00, 1009.7,    0.3, -999.0
15-08-2023, 00:11:15,    287,    1.8,   11.4,   0.00,   0.00, 1009.8,    0.4, -999.0
15-08-2023, 00:11:25,    293,    0.6,   11.5,   0.00,   0.00, 1009.7,    0.3, -999.0
15-08-2023, 00:11:35,    289,    0.3,   11.4,   0.00,   0.00, 1009.7,    0.3, -999.0
15-08-2023, 00:11:45,    289,    0.1,   11.4,   0.00,   0.00, 1009.6,    0.2, -999.0
15-08-2023, 00:11:55,    288,    0.0,   11.4,   0.00,   0.00, 1009.6,    0.3, -999.0
15-08-2023, 00:12:05,    289,    0.0,   11.4,   0.00,   0.00, 1009.6,    0.2, -999.0
15-08-2023, 00:12:15,    289,    0.0,   11.3,   0.00,   0.00, 1009.6,    0.4, -999.0
15-08-2023, 00:12:25,    289,    0.0,   11.4,   0.00,   0.00, 1009.6,    0.2, -999.0
15-08-2023, 00:12:35,    247,    1.0,   11.3,   0.00,   0.00, 1009.7,    0.4, -999.0
15-08-2023, 00:12:45,    242,    1.6,   11.4,   0.00,   0.00, 1009.8,    0.3, -999.0
15-08-2023, 00:12:55,    242,    0.4,   11.4,   0.00,   0.00, 1009.8,    0.4, -999.0
15-08-2023, 00:13:05,    245,    0.1,   11.4,   0.00,   0.00, 1009.7,    0.4, -999.0
15-08-2023, 00:13:15,    254,    0.8,   11.4,   0.00,   0.00, 1009.8,    0.3, -999.0
15-08-2023, 00:13:25,    255,    0.7,   11.4,   0.00,   0.00, 1009.8,    0.3, -999.0
15-08-2023, 00:13:35,    277,    0.6,   11.4,   0.00,   0.00, 1009.7,    0.2, -999.0
15-08-2023, 00:13:44,    275,    0.5,   11.4,   0.00,   0.00, 1009.7,    0.2, -999.0
15-08-2023, 00:13:55,    273,    0.6,   11.4,   0.00,   0.00, 1009.6,    0.2, -999.0
15-08-2023, 00:14:05,    269,    2.0,   11.4,   0.00,   0.00, 1009.8,    0.3, -999.0
15-08-2023, 00:14:14,    260,    1.5,   11.5,   0.00,   0.00, 1009.7,    0.4, -999.0
15-08-2023, 00:14:24,    256,    0.3,   11.5,   0.00,   0.00, 1009.7,    0.2, -999.0
15-08-2023, 00:14:35,    258,    0.7,   11.4,   0.00,   0.00, 1009.8,    0.2, -999.0
15-08-2023, 00:14:44,    256,    0.1,   11.4,   0.00,   0.00, 1009.7,    0.2, -999.0
15-08-2023, 00:14:54,    256,    0.0,   11.3,   0.00,   0.00, 1009.6,    0.3, -999.0
15-08-2023, 00:15:04,    256,    0.0,   11.4,   0.00,   0.00, 1009.6,    0.3, -999.0
15-08-2023, 00:15:15,    256,    0.0,   11.3,   0.00,   0.00, 1009.6,    0.1, -999.0
15-08-2023, 00:15:24,    256,    0.0,   11.3,   0.00,   0.00, 1009.6,    0.0, -999.0
15-08-2023, 00:15:34,    256,    0.0,   11.3,   0.00,   0.00, 1009.6,    0.4, -999.0
15-08-2023, 00:15:44,    256,    0.0,   11.3,   0.00,   0.00, 1009.6,    0.2, -999.0
15-08-2023, 00:15:54,    256,    0.0,   11.3,   0.00,   0.00, 1009.6,    0.0, -999.0
15-08-2023, 00:16:04,    256,    0.0,   11.3,   0.00,   0.00, 1009.6,    0.0, -999.0
15-08-2023, 00:16:14,    256,    0.0,   11.4,   0.00,   0.00, 1009.6,    0.4, -999.0
15-08-2023, 00:16:24,    256,    0.0,   11.4,   0.00,   0.00, 1009.6,    0.0, -999.0
15-08-2023, 00:16:34,    258,    0.0,   11.3,   0.00,   0.00, 1009.6,    0.3, -999.0
15-08-2023, 00:16:44,    259,    0.0,   11.4,   0.00,   0.00, 1009.6,    0.3, -999.0
15-08-2023, 00:16:54,    259,    0.0,   11.4,   0.00,   0.00, 1009.6,    0.2, -999.0
15-08-2023, 00:17:04,    258,    0.0,   11.4,   0.00,   0.00, 1009.6,    0.3, -999.0
15-08-2023, 00:17:14,    258,    0.0,   11.4,   0.00,   0.00, 1009.6,    0.2, -999.0
15-08-2023, 00:17:24,    259,    0.0,   11.4,   0.00,   0.00, 1009.6,    0.3, -999.0
15-08-2023, 00:17:34,    258,    0.0,   11.4,   0.00,   0.00, 1009.6,    0.3, -999.0
15-08-2023, 00:17:44,    259,    0.0,   11.3,   0.00,   0.00, 1009.6,    0.2, -999.0
15-08-2023, 00:17:54,    258,    0.0,   11.4,   0.00,   0.00, 1009.6,    0.3, -999.0
15-08-2023, 00:18:04,    258,    0.7,   11.4,   0.00,   0.00, 1009.8,    0.2, -999.0
15-08-2023, 00:18:14,    258,    0.6,   11.5,   0.00,   0.00, 1009.8,    0.4, -999.0
15-08-2023, 00:18:24,    257,    0.3,   11.4,   0.00,   0.00, 1009.7,    0.1, -999.0
15-08-2023, 00:18:34,    257,    0.6,   11.4,   0.00,   0.00, 1009.8,    0.1, -999.0
15-08-2023, 00:18:44,    257,    0.0,   11.3,   0.00,   0.00, 1009.6,    0.0, -999.0
15-08-2023, 00:18:54,    257,    0.0,   11.3,   0.00,   0.00, 1009.6,    0.0, -999.0
15-08-2023, 00:19:04,    257,    0.0,   11.2,   0.00,   0.00, 1009.6,    0.0, -999.0
15-08-2023, 00:19:14,    257,    0.0,   11.2,   0.00,   0.00, 1009.6,    0.3, -999.0
15-08-2023, 00:19:24,    257,    0.0,   11.3,   0.00,   0.00, 1009.6,    0.2, -999.0
15-08-2023, 00:19:34,    257,    0.0,   11.2,   0.00,   0.00, 1009.6,    0.6, -999.0
15-08-2023, 00:19:44,    258,    0.0,   11.3,   0.00,   0.00, 1009.6,    0.4, -999.0
15-08-2023, 00:19:54,    257,    0.0,   11.3,   0.00,   0.00, 1009.6,    0.3, -999.0
15-08-2023, 00:20:04,    259,    0.0,   11.3,   0.00,   0.00, 1009.6,    0.2, -999.0
15-08-2023, 00:20:13,    256,    0.8,   11.3,   0.00,   0.00, 1009.8,    0.1, -999.0
15-08-2023, 00:20:24,    256,    0.3,   11.4,   0.00,   0.00, 1009.7,    0.4, -999.0
15-08-2023, 00:20:34,    256,    0.0,   11.3,   0.00,   0.00, 1009.6,    0.4, -999.0
15-08-2023, 00:20:43,    256,    0.2,   11.3,   0.00,   0.00, 1009.7,    0.1, -999.0
15-08-2023, 00:20:53,    256,    0.1,   11.3,   0.00,   0.00, 1009.7,    0.5, -999.0
15-08-2023, 00:21:04,    260,    0.3,   11.3,   0.00,   0.00, 1009.7,    0.3, -999.0
15-08-2023, 00:21:14,    260,    0.2,   11.3,   0.00,   0.00, 1009.7,    0.2, -999.0
15-08-2023, 00:21:23,    259,    0.0,   11.3,   0.00,   0.00, 1009.6,    0.4, -999.0
15-08-2023, 00:21:33,    260,    0.0,   11.3,   0.00,   0.00, 1009.6,    0.0, -999.0
15-08-2023, 00:21:44,    260,    0.0,   11.3,   0.00,   0.00, 1009.6,    0.0, -999.0
15-08-2023, 00:21:53,    260,    0.6,   11.4,   0.00,   0.00, 1009.8,    0.4, -999.0
15-08-2023, 00:22:03,    259,    0.0,   11.3,   0.00,   0.00, 1009.7,    0.1, -999.0
15-08-2023, 00:22:13,    260,    0.5,   11.4,   0.00,   0.00, 1009.7,    0.4, -999.0
15-08-2023, 00:22:23,    259,    0.1,   11.3,   0.00,   0.00, 1009.7,    0.3, -999.0
15-08-2023, 00:22:33,    258,    0.0,   11.3,   0.00,   0.00, 1009.6,    0.3, -999.0
15-08-2023, 00:22:43,    259,    0.2,   11.4,   0.00,   0.00, 1009.7,    0.2, -999.0
15-08-2023, 00:22:54,    259,    0.2,   11.3,   0.00,   0.00, 1009.7,    0.2, -999.0
15-08-2023, 00:23:03,    258,    0.2,   11.3,   0.00,   0.00, 1009.7,    0.0, -999.0
15-08-2023, 00:23:13,    258,    0.0,   11.3,   0.00,   0.00, 1009.6,    0.4, -999.0
15-08-2023, 00:23:23,    258,    0.0,   11.3,   0.00,   0.00, 1009.6,    0.2, -999.0
15-08-2023, 00:23:33,    259,    0.0,   11.3,   0.00,   0.00, 1009.6,    0.4, -999.0
15-08-2023, 00:23:43,    259,    0.0,   11.3,   0.00,   0.00, 1009.6,    0.3, -999.0
15-08-2023, 00:23:53,    258,    0.0,   11.3,   0.00,   0.00, 1009.6,    0.3, -999.0
15-08-2023, 00:24:04,    258,    0.0,   11.3,   0.00,   0.00, 1009.6,    0.2, -999.0
15-08-2023, 00:24:13,    259,    0.0,   11.3,   0.00,   0.00, 1009.6,    0.1, -999.0
15-08-2023, 00:24:23,    258,    0.0,   11.2,   0.00,   0.00, 1009.6,    0.1, -999.0
15-08-2023, 00:24:33,    258,    0.0,   11.2,   0.00,   0.00, 1009.6,    0.3, -999.0
15-08-2023, 00:24:43,    258,    0.1,   11.3,   0.00,   0.00, 1009.7,    0.3, -999.0
15-08-2023, 00:24:53,    258,    0.0,   11.2,   0.00,   0.00, 1009.6,    0.1, -999.0
15-08-2023, 00:25:03,    258,    0.0,   11.3,   0.00,   0.00, 1009.6,    0.2, -999.0
15-08-2023, 00:25:13,    258,    0.0,   11.3,   0.00,   0.00, 1009.7,    0.3, -999.0
15-08-2023, 00:25:23,    258,    0.0,   11.2,   0.00,   0.00, 1009.6,    0.1, -999.0
15-08-2023, 00:25:33,    301,    0.8,   11.2,   0.00,   0.00, 1009.7,    0.4, -999.0
15-08-2023, 00:25:43,    299,    0.6,   11.3,   0.00,   0.00, 1009.7,    0.2, -999.0
15-08-2023, 00:25:53,    300,    0.3,   11.3,   0.00,   0.00, 1009.7,    0.3, -999.0
15-08-2023, 00:26:03,    299,    0.5,   11.3,   0.00,   0.00, 1009.7,    0.3, -999.0
15-08-2023, 00:26:13,    299,    0.0,   11.2,   0.00,   0.00, 1009.6,    0.4, -999.0
15-08-2023, 00:26:23,    299,    0.0,   11.2,   0.00,   0.00, 1009.6,    0.6, -999.0
15-08-2023, 00:26:33,    299,    0.0,   11.2,   0.00,   0.00, 1009.6,    0.4, -999.0
15-08-2023, 00:26:42,    299,    0.0,   11.2,   0.00,   0.00, 1009.6,    0.5, -999.0
15-08-2023, 00:26:53,    299,    0.0,   11.2,   0.00,   0.00, 1009.6,    0.1, -999.0
15-08-2023, 00:27:03,    263,    0.0,   11.2,   0.00,   0.00, 1009.6,    0.6, -999.0
15-08-2023, 00:27:13,    264,    0.0,   11.2,   0.00,   0.00, 1009.7,    0.3, -999.0
15-08-2023, 00:27:23,    264,    0.4,   11.2,   0.00,   0.00, 1009.7,    0.2, -999.0
15-08-2023, 00:27:33,    264,    0.4,   11.2,   0.00,   0.00, 1009.7,    0.4, -999.0
15-08-2023, 00:27:43,    263,    1.0,   11.3,   0.00,   0.00, 1009.8,    0.4, -999.0
15-08-2023, 00:27:52,    263,    0.1,   11.2,   0.00,   0.00, 1009.7,    0.4, -999.0
15-08-2023, 00:28:03,    263,    0.0,   11.1,   0.00,   0.00, 1009.6,    0.4, -999.0
15-08-2023, 00:28:13,    263,    0.0,   11.1,   0.00,   0.00, 1009.7,    0.1, -999.0
15-08-2023, 00:28:22,    263,    0.2,   11.2,   0.00,   0.00, 1009.8,    0.3, -999.0
15-08-2023, 00:28:32,    263,    0.4,   11.2,   0.00,   0.00, 1009.8,    0.4, -999.0
15-08-2023, 00:28:43,    263,    0.0,   11.0,   0.00,   0.00, 1009.7,    0.3, -999.0
15-08-2023, 00:28:52,    263,    0.0,   11.1,   0.00,   0.00, 1009.7,    0.3, -999.0
15-08-2023, 00:29:02,    263,    0.0,   11.2,   0.00,   0.00, 1009.6,    0.3, -999.0
15-08-2023, 00:29:12,    263,    0.0,   11.1,   0.00,   0.00, 1009.6,    0.2, -999.0
15-08-2023, 00:29:23,    263,    0.0,   11.1,   0.00,   0.00, 1009.6,    0.2, -999.0
15-08-2023, 00:29:32,    264,    1.1,   11.2,   0.00,   0.00, 1009.8,    0.4, -999.0
15-08-2023, 00:29:42,    264,    1.2,   11.2,   0.00,   0.00, 1009.8,    0.4, -999.0
15-08-2023, 00:29:52,    263,    0.1,   11.2,   0.00,   0.00, 1009.7,    0.2, -999.0
15-08-2023, 00:30:02,    264,    0.0,   11.1,   0.00,   0.00, 1009.6,    0.2, -999.0
15-08-2023, 00:30:12,    268,    0.3,   11.2,   0.00,   0.00, 1009.7,    0.3, -999.0
15-08-2023, 00:30:22,    263,    0.0,   11.2,   0.00,   0.00, 1009.6,    0.2, -999.0
15-08-2023, 00:30:32,    263,    0.3,   11.1,   0.00,   0.00, 1009.7,    0.3, -999.0
15-08-2023, 00:30:42,    264,    0.0,   11.1,   0.00,   0.00, 1009.6,    0.2, -999.0
15-08-2023, 00:30:52,    264,    0.0,   11.1,   0.00,   0.00, 1009.6,    0.3, -999.0
15-08-2023, 00:31:02,    263,    0.0,   11.1,   0.00,   0.00, 1009.6,    0.1, -999.0
15-08-2023, 00:31:12,    263,    0.0,   11.1,   0.00,   0.00, 1009.6,    0.3, -999.0
15-08-2023, 00:31:22,    267,    0.0,   11.1,   0.00,   0.00, 1009.7,    0.4, -999.0
15-08-2023, 00:31:32,    237,    0.5,   11.1,   0.00,   0.00, 1009.7,    0.3, -999.0
15-08-2023, 00:31:42,    237,    0.5,   11.3,   0.00,   0.00, 1009.8,    0.3, -999.0
15-08-2023, 00:31:52,    237,    0.1,   11.2,   0.00,   0.00, 1009.7,    0.3, -999.0
15-08-2023, 00:32:02,    243,    0.8,   11.2,   0.00,   0.00, 1009.7,    0.2, -999.0
15-08-2023, 00:32:12,    243,    0.7,   11.2,   0.00,   0.00, 1009.8,    0.3, -999.0
15-08-2023, 00:32:22,    243,    0.5,   11.2,   0.00,   0.00, 1009.7,    0.1, -999.0
15-08-2023, 00:32:32,    243,    0.3,   11.2,   0.00,   0.00, 1009.8,    0.6, -999.0
15-08-2023, 00:32:42,    243,    0.0,   11.1,   0.00,   0.00, 1009.7,    0.2, -999.0
15-08-2023, 00:32:52,    243,    0.2,   11.2,   0.00,   0.00, 1009.7,    0.2, -999.0
15-08-2023, 00:33:02,    246,    0.5,   11.2,   0.00,   0.00, 1009.7,    0.3, -999.0
15-08-2023, 00:33:12,    250,    0.5,   11.2,   0.00,   0.00, 1009.7,    0.3, -999.0
15-08-2023, 00:33:22,    251,    0.0,   11.2,   0.00,   0.00, 1009.6,    0.4, -999.0
15-08-2023, 00:33:32,    251,    0.0,   11.2,   0.00,   0.00, 1009.7,    0.2, -999.0
15-08-2023, 00:33:42,    251,    0.5,   11.2,   0.00,   0.00, 1009.8,    0.1, -999.0
15-08-2023, 00:33:52,    254,    0.6,   11.2,   0.00,   0.00, 1009.8,    0.3, -999.0
15-08-2023, 00:34:02,    253,    0.3,   11.2,   0.00,   0.00, 1009.7,    0.1, -999.0
15-08-2023, 00:34:12,    254,    0.1,   11.2,   0.00,   0.00, 1009.7,    0.0, -999.0
15-08-2023, 00:34:21,    257,    0.1,   11.2,   0.00,   0.00, 1009.7,    0.4, -999.0
15-08-2023, 00:34:32,    256,    0.0,   11.1,   0.00,   0.00, 1009.7,    0.3, -999.0
15-08-2023, 00:34:42,    256,    0.0,   11.2,   0.00,   0.00, 1009.6,    0.4, -999.0
15-08-2023, 00:34:51,    256,    0.0,   11.1,   0.00,   0.00, 1009.7,    0.2, -999.0
15-08-2023, 00:35:01,    256,    0.0,   11.1,   0.00,   0.00, 1009.6,    0.2, -999.0
15-08-2023, 00:35:12,    256,    0.0,   11.0,   0.00,   0.00, 1009.6,    0.3, -999.0
15-08-2023, 00:35:21,    256,    0.0,   11.1,   0.00,   0.00, 1009.6,    0.2, -999.0
15-08-2023, 00:35:31,    256,    0.1,   11.1,   0.00,   0.00, 1009.7,    0.1, -999.0
15-08-2023, 00:35:42,    256,    0.1,   11.1,   0.00,   0.00, 1009.7,    0.2, -999.0
15-08-2023, 00:35:52,    254,    0.2,   11.1,   0.00,   0.00, 1009.7,    0.3, -999.0
15-08-2023, 00:36:01,    256,    0.0,   11.1,   0.00,   0.00, 1009.7,    0.2, -999.0
15-08-2023, 00:36:11,    256,    0.0,   11.0,   0.00,   0.00, 1009.7,    0.1, -999.0
15-08-2023, 00:36:22,    257,    0.0,   11.1,   0.00,   0.00, 1009.7,    0.3, -999.0
15-08-2023, 00:36:31,    256,    0.5,   11.1,   0.00,   0.00, 1009.7,    0.3, -999.0
15-08-2023, 00:36:41,    256,    0.1,   11.1,   0.00,   0.00, 1009.7,    0.6, -999.0
15-08-2023, 00:36:51,    257,    0.4,   11.1,   0.00,   0.00, 1009.7,    0.3, -999.0
15-08-2023, 00:37:01,    256,    0.0,   11.0,   0.00,   0.00, 1009.6,    0.2, -999.0
15-08-2023, 00:37:11,    257,    0.0,   11.1,   0.00,   0.00, 1009.6,    0.4, -999.0
15-08-2023, 00:37:21,    257,    0.0,   11.0,   0.00,   0.00, 1009.6,    0.2, -999.0
15-08-2023, 00:37:31,    257,    0.0,   10.9,   0.00,   0.00, 1009.6,    0.1, -999.0
15-08-2023, 00:37:41,    256,    0.0,   11.0,   0.00,   0.00, 1009.6,    0.5, -999.0
15-08-2023, 00:37:51,    257,    0.0,   11.0,   0.00,   0.00, 1009.6,    0.3, -999.0
15-08-2023, 00:38:01,    257,    0.0,   11.0,   0.00,   0.00, 1009.6,    0.3, -999.0
15-08-2023, 00:38:11,    257,    0.0,   11.0,   0.00,   0.00, 1009.6,    0.2, -999.0
15-08-2023, 00:38:21,    257,    0.0,   11.0,   0.00,   0.00, 1009.6,    0.2, -999.0
15-08-2023, 00:38:33,    257,    0.0,   11.0,   0.00,   0.00, 1009.7,    0.2, -999.0
15-08-2023, 00:38:41,    257,    0.0,   10.8,   0.00,   0.00, 1009.6,    0.2, -999.0
15-08-2023, 00:38:51,    257,    0.0,   11.0,   0.00,   0.00, 1009.6,    0.3, -999.0
15-08-2023, 00:39:01,    256,    0.0,   11.0,   0.00,   0.00, 1009.6,    0.4, -999.0
15-08-2023, 00:39:11,    256,    0.0,   11.0,   0.00,   0.00, 1009.6,    0.3, -999.0
15-08-2023, 00:39:21,    281,    1.0,   11.1,   0.00,   0.00, 1009.8,    0.3, -999.0
15-08-2023, 00:39:31,    280,    0.3,   11.1,   0.00,   0.00, 1009.7,    0.3, -999.0
15-08-2023, 00:39:41,    228,    1.4,   11.0,   0.00,   0.00, 1009.7,    0.3, -999.0
15-08-2023, 00:39:51,    224,    0.9,   11.1,   0.00,   0.00, 1009.8,    0.3, -999.0
15-08-2023, 00:40:01,    224,    0.2,   11.1,   0.00,   0.00, 1009.7,    0.2, -999.0
15-08-2023, 00:40:11,    224,    0.0,   11.0,   0.00,   0.00, 1009.7,    0.2, -999.0
15-08-2023, 00:40:21,    224,    0.0,   11.0,   0.00,   0.00, 1009.7,    0.3, -999.0
15-08-2023, 00:40:31,    225,    0.0,   11.0,   0.00,   0.00, 1009.7,    0.4, -999.0
15-08-2023, 00:40:41,    226,    0.0,   11.0,   0.00,   0.00, 1009.7,    0.2, -999.0
15-08-2023, 00:40:51,    225,    0.0,   11.0,   0.00,   0.00, 1009.7,    0.3, -999.0
15-08-2023, 00:41:01,    225,    0.0,   11.0,   0.00,   0.00, 1009.7,    0.1, -999.0
15-08-2023, 00:41:11,    234,    0.5,   11.1,   0.00,   0.00, 1009.8,    0.3, -999.0
15-08-2023, 00:41:20,    284,    1.2,   11.1,   0.00,   0.00, 1009.8,    0.3, -999.0
15-08-2023, 00:41:31,    289,    0.1,   11.1,   0.00,   0.00, 1009.7,    0.3, -999.0
15-08-2023, 00:41:41,    288,    0.3,   11.0,   0.00,   0.00, 1009.7,    0.3, -999.0
15-08-2023, 00:41:50,    288,    0.0,   11.0,   0.00,   0.00, 1009.6,    0.3, -999.0
15-08-2023, 00:42:00,    289,    0.0,   11.0,   0.00,   0.00, 1009.7,    0.3, -999.0
15-08-2023, 00:42:11,    288,    0.0,   11.0,   0.00,   0.00, 1009.7,    0.2, -999.0
15-08-2023, 00:42:21,    288,    0.0,   10.9,   0.00,   0.00, 1009.7,    0.2, -999.0
15-08-2023, 00:42:30,    288,    0.0,   10.9,   0.00,   0.00, 1009.7,    0.3, -999.0
15-08-2023, 00:42:41,    288,    0.0,   10.9,   0.00,   0.00, 1009.7,    0.2, -999.0
15-08-2023, 00:42:51,    288,    0.0,   11.0,   0.00,   0.00, 1009.7,    0.4, -999.0
15-08-2023, 00:43:00,    288,    0.0,   10.9,   0.00,   0.00, 1009.7,    0.2, -999.0
15-08-2023, 00:43:10,    288,    0.0,   10.9,   0.00,   0.00, 1009.6,    0.2, -999.0
15-08-2023, 00:43:21,    289,    0.6,   11.0,   0.00,   0.00, 1009.7,    0.2, -999.0
15-08-2023, 00:43:30,    289,    1.0,   11.0,   0.00,   0.00, 1009.8,    0.5, -999.0
15-08-2023, 00:43:40,    289,    0.9,   11.0,   0.00,   0.00, 1009.8,    0.2, -999.0
15-08-2023, 00:43:50,    289,    0.0,   11.0,   0.00,   0.00, 1009.7,    0.2, -999.0
15-08-2023, 00:44:00,    289,    0.0,   10.9,   0.00,   0.00, 1009.7,    0.3, -999.0
15-08-2023, 00:44:10,    289,    0.2,   11.0,   0.00,   0.00, 1009.7,    0.2, -999.0
15-08-2023, 00:44:20,    289,    0.1,   11.0,   0.00,   0.00, 1009.7,    0.4, -999.0
15-08-2023, 00:44:30,    288,    0.1,   11.0,   0.00,   0.00, 1009.7,    0.3, -999.0
15-08-2023, 00:44:40,    289,    0.0,   10.9,   0.00,   0.00, 1009.7,    0.3, -999.0
15-08-2023, 00:44:50,    289,    0.0,   10.9,   0.00,   0.00, 1009.7,    0.2, -999.0
15-08-2023, 00:45:00,    289,    0.0,   10.9,   0.00,   0.00, 1009.7,    0.2, -999.0
15-08-2023, 00:45:10,    289,    0.0,   10.9,   0.00,   0.00, 1009.7,    0.3, -999.0
15-08-2023, 00:45:20,    289,    0.0,   10.8,   0.00,   0.00, 1009.6,    0.3, -999.0
15-08-2023, 00:45:30,    289,    0.0,   10.9,   0.00,   0.00, 1009.6,    0.2, -999.0
15-08-2023, 00:45:40,    289,    0.0,   10.8,   0.00,   0.00, 1009.7,    0.3, -999.0
15-08-2023, 00:45:50,    289,    0.0,   10.7,   0.00,   0.00, 1009.7,    0.3, -999.0
15-08-2023, 00:46:00,    289,    0.0,   10.8,   0.00,   0.00, 1009.7,    0.1, -999.0
15-08-2023, 00:46:10,    289,    0.0,   10.9,   0.00,   0.00, 1009.7,    0.3, -999.0
15-08-2023, 00:46:20,    288,    0.0,   10.9,   0.00,   0.00, 1009.7,    0.2, -999.0
15-08-2023, 00:46:30,    289,    0.0,   10.9,   0.00,   0.00, 1009.7,    0.3, -999.0
15-08-2023, 00:46:40,    289,    0.0,   10.8,   0.00,   0.00, 1009.7,    0.3, -999.0
15-08-2023, 00:46:50,    289,    0.0,   10.9,   0.00,   0.00, 1009.7,    0.3, -999.0